When you browse on this site, cookies collect data to enhance your experience and personalize the content and advertising you see.
Visit our Privacy Policy to learn more. By continuing to use the site, you agree to this use of cookies and data.
  • In Deutschland
  • Länderverzeichnis
  • Für 7 Tage
  • Wassertemperatur
  • Satellitenkarten
  • Wetterkarte
  • Widgets
  • user-avatar
    Anmelden

    Stündliche Wetter Bad Gögging

    Heute, 23 Februar, Samstag

    Zeit Temperatur Niederschläge Wind Luftdruck Luftfeuchtigkeit
    00:00 0°C° 0 mm 3 m/S 746 mmHg 81%
    01:00 -1°C° 0 mm 2 m/S 747 mmHg 84%
    02:00 -1°C° 0 mm 2 m/S 747 mmHg 85%
    03:00 -1°C° 0 mm 2 m/S 747 mmHg 85%
    04:00 -2°C° 0 mm 3 m/S 747 mmHg 85%
    05:00 -2°C° 0 mm 3 m/S 747 mmHg 79%
    06:00 -2°C° 0 mm 3 m/S 747 mmHg 73%
    07:00 -4°C° 0 mm 3 m/S 748 mmHg 68%
    08:00 -2°C° 0 mm 3 m/S 747 mmHg 58%
    09:00 -2°C° 0 mm 4 m/S 747 mmHg 49%
    10:00 -1°C° 0 mm 4 m/S 747 mmHg 40%
    11:00 0°C° 0 mm 4 m/S 746 mmHg 35%
    12:00 +3°C° 0 mm 4 m/S 746 mmHg 31%
    13:00 +4°C° 0 mm 4 m/S 746 mmHg 27%
    14:00 +4°C° 0 mm 4 m/S 746 mmHg 27%
    15:00 +4°C° 0 mm 3 m/S 745 mmHg 28%
    16:00 +4°C° 0 mm 3 m/S 745 mmHg 29%
    17:00 +3°C° 0 mm 3 m/S 745 mmHg 34%
    18:00 +1°C° 0 mm 3 m/S 745 mmHg 40%
    19:00 +1°C° 0 mm 2 m/S 745 mmHg 45%
    20:00 -1°C° 0 mm 2 m/S 745 mmHg 46%
    21:00 -1°C° 0 mm 2 m/S 746 mmHg 47%
    22:00 -1°C° 0 mm 2 m/S 746 mmHg 48%
    23:00 -1°C° 0 mm 2 m/S 746 mmHg 48%

    Morgen, 24 Februar, Sonntag

    Zeit Temperatur Niederschläge Wind Luftdruck Luftfeuchtigkeit
    00:00 -1°C° 0 mm 2 m/S 746 mmHg 48%
    01:00 -2°C° 0 mm 2 m/S 746 mmHg 47%
    02:00 -2°C° 0 mm 2 m/S 745 mmHg 46%
    03:00 -2°C° 0 mm 2 m/S 745 mmHg 45%
    04:00 -2°C° 0 mm 2 m/S 745 mmHg 44%
    05:00 -2°C° 0 mm 2 m/S 745 mmHg 43%
    06:00 -2°C° 0 mm 2 m/S 745 mmHg 42%
    07:00 -2°C° 0 mm 2 m/S 745 mmHg 41%
    08:00 -1°C° 0 mm 2 m/S 745 mmHg 36%
    09:00 +2°C° 0 mm 2 m/S 745 mmHg 32%
    10:00 +3°C° 0 mm 2 m/S 745 mmHg 28%
    11:00 +5°C° 0 mm 2 m/S 745 mmHg 26%
    12:00 +7°C° 0 mm 2 m/S 745 mmHg 25%
    13:00 +8°C° 0 mm 2 m/S 745 mmHg 24%
    14:00 +8°C° 0 mm 2 m/S 745 mmHg 29%
    15:00 +9°C° 0 mm 1 m/S 745 mmHg 33%
    16:00 +9°C° 0 mm 1 m/S 744 mmHg 38%
    17:00 +7°C° 0 mm 1 m/S 745 mmHg 42%
    18:00 +6°C° 0 mm 1 m/S 745 mmHg 45%
    19:00 +4°C° 0 mm 1 m/S 745 mmHg 49%
    20:00 +4°C° 0 mm 1 m/S 746 mmHg 50%
    21:00 +3°C° 0 mm 1 m/S 746 mmHg 51%
    22:00 +3°C° 0 mm 1 m/S 746 mmHg 52%
    23:00 +3°C° 0 mm 1 m/S 746 mmHg 53%

    übermorgen, 25 Februar, Montag

    Zeit Temperatur Niederschläge Wind Luftdruck Luftfeuchtigkeit
    00:00 +2°C° 0 mm 1 m/S 746 mmHg 54%
    01:00 +2°C° 0 mm 1 m/S 746 mmHg 55%
    02:00 +2°C° 0 mm 1 m/S 746 mmHg 56%
    03:00 +2°C° 0 mm 1 m/S 746 mmHg 57%
    04:00 +2°C° 0 mm 1 m/S 746 mmHg 59%
    05:00 +2°C° 0 mm 1 m/S 746 mmHg 60%
    06:00 +2°C° 0 mm 1 m/S 745 mmHg 61%
    07:00 +2°C° 0 mm 1 m/S 745 mmHg 62%
    08:00 +4°C° 0 mm 1 m/S 746 mmHg 58%
    09:00 +5°C° 0 mm 1 m/S 746 mmHg 54%
    10:00 +7°C° 0 mm 1 m/S 746 mmHg 50%
    11:00 +9°C° 0 mm 1 m/S 746 mmHg 50%
    12:00 +11°C° 0 mm 1 m/S 745 mmHg 50%
    13:00 +12°C° 0 mm 1 m/S 745 mmHg 49%
    14:00 +12°C° 0 mm 1 m/S 745 mmHg 52%
    15:00 +13°C° 0 mm 1 m/S 745 mmHg 54%
    16:00 +13°C° 0 mm 1 m/S 745 mmHg 56%
    17:00 +11°C° 0 mm 1 m/S 745 mmHg 62%
    18:00 +9°C° 0 mm 1 m/S 745 mmHg 69%
    19:00 +8°C° 0 mm 1 m/S 745 mmHg 75%
    20:00 +7°C° 0 mm 1 m/S 745 mmHg 77%
    21:00 +7°C° 0 mm 1 m/S 745 mmHg 79%
    22:00 +6°C° 0 mm 1 m/S 745 mmHg 81%
    23:00 +6°C° 0 mm 1 m/S 745 mmHg 81%

    26 Februar, Dienstag

    Zeit Temperatur Niederschläge Wind Luftdruck Luftfeuchtigkeit
    00:00 +5°C° 0 mm 1 m/S 745 mmHg 81%
    01:00 +5°C° 0 mm 1 m/S 745 mmHg 82%
    02:00 +4°C° 0 mm 1 m/S 745 mmHg 81%
    03:00 +4°C° 0 mm 1 m/S 744 mmHg 80%
    04:00 +4°C° 0 mm 1 m/S 744 mmHg 80%
    05:00 +3°C° 0 mm 0 m/S 744 mmHg 79%
    06:00 +2°C° 0 mm 0 m/S 744 mmHg 78%
    07:00 +2°C° 0 mm 0 m/S 744 mmHg 78%
    08:00 +4°C° 0 mm 0 m/S 744 mmHg 71%
    09:00 +6°C° 0 mm 0 m/S 744 mmHg 64%
    10:00 +8°C° 0 mm 0 m/S 744 mmHg 58%
    11:00 +10°C° 0 mm 1 m/S 744 mmHg 54%
    12:00 +12°C° 0 mm 1 m/S 743 mmHg 50%
    13:00 +14°C° 0 mm 1 m/S 743 mmHg 46%
    14:00 +14°C° 0 mm 1 m/S 743 mmHg 47%
    15:00 +14°C° 0 mm 1 m/S 743 mmHg 49%
    16:00 +14°C° 0 mm 1 m/S 742 mmHg 50%
    17:00 +12°C° 0 mm 1 m/S 742 mmHg 56%
    18:00 +11°C° 0 mm 1 m/S 742 mmHg 62%
    19:00 +9°C° 0 mm 1 m/S 743 mmHg 68%
    20:00 +8°C° 0 mm 1 m/S 743 mmHg 70%
    21:00 +8°C° 0 mm 1 m/S 743 mmHg 71%
    22:00 +7°C° 0 mm 1 m/S 743 mmHg 73%
    23:00 +7°C° 0 mm 1 m/S 742 mmHg 73%

    27 Februar, Mittwoch

    Zeit Temperatur Niederschläge Wind Luftdruck Luftfeuchtigkeit
    00:00 +6°C° 0 mm 0 m/S 742 mmHg 73%
    01:00 +5°C° 0 mm 0 m/S 742 mmHg 74%
    02:00 +5°C° 0 mm 0 m/S 741 mmHg 73%
    03:00 +5°C° 0 mm 0 m/S 741 mmHg 73%
    04:00 +4°C° 0 mm 0 m/S 741 mmHg 73%
    05:00 +4°C° 0 mm 0 m/S 741 mmHg 72%
    06:00 +4°C° 0 mm 0 m/S 740 mmHg 72%
    07:00 +3°C° 0 mm 0 m/S 740 mmHg 71%
    08:00 +5°C° 0 mm 0 m/S 740 mmHg 65%
    09:00 +7°C° 0 mm 0 m/S 740 mmHg 58%
    10:00 +10°C° 0 mm 1 m/S 740 mmHg 52%
    11:00 +12°C° 0 mm 1 m/S 739 mmHg 48%
    12:00 +13°C° 0 mm 1 m/S 739 mmHg 43%
    13:00 +14°C° 0 mm 0 m/S 739 mmHg 38%
    14:00 +14°C° 0 mm 0 m/S 738 mmHg 39%
    15:00 +14°C° 0 mm 0 m/S 738 mmHg 40%
    16:00 +14°C° 0 mm 0 m/S 737 mmHg 41%
    17:00 +12°C° 0 mm 0 m/S 737 mmHg 45%
    18:00 +11°C° 0 mm 0 m/S 737 mmHg 49%
    19:00 +10°C° 0 mm 1 m/S 737 mmHg 54%
    20:00 +10°C° 0 mm 1 m/S 737 mmHg 56%
    21:00 +9°C° 0 mm 1 m/S 737 mmHg 58%
    22:00 +8°C° 0 mm 1 m/S 737 mmHg 61%
    23:00 +7°C° 0 mm 2 m/S 737 mmHg 66%

    28 Februar, Donnerstag

    Zeit Temperatur Niederschläge Wind Luftdruck Luftfeuchtigkeit
    00:00 +6°C° 0 mm 2 m/S 736 mmHg 71%
    01:00 +6°C° 0 mm 2 m/S 736 mmHg 76%
    02:00 +5°C° 0 mm 3 m/S 736 mmHg 78%
    03:00 +5°C° 0 mm 3 m/S 736 mmHg 79%
    04:00 +4°C° 0 mm 3 m/S 735 mmHg 81%
    05:00 +4°C° 0 mm 3 m/S 735 mmHg 81%
    06:00 +4°C° 0 mm 4 m/S 735 mmHg 81%
    07:00 +4°C° 0 mm 4 m/S 735 mmHg 81%
    08:00 +6°C° 0 mm 5 m/S 735 mmHg 76%
    09:00 +7°C° 0 mm 5 m/S 735 mmHg 72%
    10:00 +9°C° 0 mm 6 m/S 735 mmHg 68%
    11:00 +10°C° 0 mm 7 m/S 735 mmHg 64%
    12:00 +11°C° 0 mm 7 m/S 734 mmHg 59%
    13:00 +12°C° 0 mm 7 m/S 734 mmHg 55%
    14:00 +12°C° 0 mm 7 m/S 734 mmHg 56%
    15:00 +12°C° 0 mm 7 m/S 734 mmHg 58%
    16:00 +12°C° 0 mm 7 m/S 734 mmHg 59%
    17:00 +11°C° 0 mm 6 m/S 735 mmHg 66%
    18:00 +9°C° 0 mm 5 m/S 735 mmHg 72%
    19:00 +8°C° 0 mm 5 m/S 736 mmHg 79%
    20:00 +8°C° 0 mm 4 m/S 736 mmHg 81%
    21:00 +7°C° 0 mm 4 m/S 736 mmHg 82%
    22:00 +7°C° 0 mm 4 m/S 736 mmHg 84%
    23:00 +7°C° 0.1 mm 4 m/S 736 mmHg 84%
    Mehr zeigen